Del Bajio, Mexico

2:52 AM CST on January 21, 2018 (GMT -0600)
De Guanajuato International

Weather History for MMLO - February, 2014

Change the Weather History Date:

Monday, February 24, 2014

  Actual Average Record
Temperature  
Mean Temperature 66 °F -  
Max Temperature 82 °F 79 °F 91 °F (2008)
Min Temperature 50 °F 45 °F 39 °F (2009)
Cooling Degree Days 1    
Growing Degree Days 16 (Base 50)    
Moisture  
Dew Point 40 °F    
Average Humidity 41    
Maximum Humidity 71    
Minimum Humidity 19    
Precipitation  
Precipitation 0.00 in - - ()
Sea Level Pressure  
Sea Level Pressure 30.07 in    
Wind  
Wind Speed 3 mph ()    
Max Wind Speed 10 mph    
Max Gust Speed -    
Visibility 8.5 miles    
Events      
Averages and records for this station are not official NWS values.
T = Trace of Precipitation, MM = Missing Value Source: Averaged Metar Reports

Daily Weather History Graph

Daily Weather History Graph

Search for Another Location

Airport or City:

Trip Planner

Search our weather history database for the weather conditions in past years. The results will help you decide how hot, cold, wet, or windy it might be!

Date:

Astronomy

Feb. 24, 2014 Rise Set
Actual Time 7:10 AM CST 6:48 PM CST
Civil Twilight 6:47 AM CST 7:10 PM CST
Nautical Twilight 6:21 AM CST 7:36 PM CST
Astronomical Twilight 5:55 AM CST 8:02 PM CST
Moon 2:48 AM CST (2/24) 2:13 PM CST (2/24)
Length of Visible Light 12h 23m
Length of Day
11h 38m
Waning Crescent, 28% of the Moon is Illuminated
Feb 24
Waning Crescent
Mar 1
New
Mar 8
First Quarter
Mar 16
Full
Mar 23
Last Quarter

Hourly Weather History & Observations

Time (CST) Temp. Dew Point Humidity Pressure Visibility Wind Dir Wind Speed Gust Speed Precip Events Conditions
12:40 AM 53.6 °F 39.2 °F 58% 30.21 in 7.0 mi Calm Calm - N/A   Clear
1:50 AM 55.4 °F 41.0 °F 58% 30.21 in 7.0 mi NNE 6.9 mph - N/A   Clear
2:45 AM 55.4 °F 41.0 °F 58% 29.79 in 7.0 mi Calm Calm - N/A   Clear
3:50 AM 53.6 °F 39.2 °F 58% 30.17 in 7.0 mi Calm Calm - N/A   Clear
4:50 AM 51.8 °F 41.0 °F 67% 30.17 in 7.0 mi NE 6.9 mph - N/A   Clear
5:50 AM 51.8 °F 41.0 °F 67% 29.80 in 7.0 mi Calm Calm - N/A   Clear
6:51 AM 50.0 °F 41.0 °F 71% 30.20 in 6.0 mi Calm Calm - N/A   Clear
7:44 AM 51.8 °F 41.0 °F 67% 30.24 in 8.0 mi NNE 3.5 mph - N/A   Clear
8:45 AM 62.6 °F 42.8 °F 48% 29.92 in 9.0 mi Calm Calm - N/A   Clear
9:51 AM 69.8 °F 42.8 °F 38% 30.27 in 9.0 mi WSW 4.6 mph - N/A   Partly Cloudy
10:44 AM 73.4 °F 42.8 °F 33% 30.27 in 9.0 mi WSW 10.4 mph - N/A   Scattered Clouds
11:42 AM 75.2 °F 42.8 °F 31% 29.91 in 10.0 mi WNW 6.9 mph - N/A   Mostly Cloudy
12:43 PM 78.8 °F 42.8 °F 28% 30.24 in 10.0 mi NW 5.8 mph - N/A   Scattered Clouds
1:45 PM 82.4 °F 41.0 °F 23% 30.18 in 10.0 mi West 3.5 mph - N/A   Scattered Clouds
2:49 PM 80.6 °F 41.0 °F 24% 29.74 in 10.0 mi SSE 4.6 mph - N/A   Scattered Clouds
4:05 PM 82.4 °F 37.4 °F 20% 30.12 in 10.0 mi Calm Calm - N/A   Scattered Clouds
4:50 PM 82.4 °F 35.6 °F 19% 30.12 in 10.0 mi NW 6.9 mph - N/A   Scattered Clouds
5:51 PM 80.6 °F 35.6 °F 20% 29.73 in 10.0 mi West 4.6 mph - N/A   Scattered Clouds
6:46 PM 75.2 °F 37.4 °F 25% 30.12 in 10.0 mi WNW 3.5 mph - N/A   Scattered Clouds
7:51 PM 69.8 °F 37.4 °F 31% 30.15 in 8.0 mi SSW 4.6 mph - N/A   Scattered Clouds
8:40 PM 68.0 °F 35.6 °F 30% 29.80 in 8.0 mi Calm Calm - N/A   Scattered Clouds
9:42 PM 64.4 °F 37.4 °F 37% 30.21 in 8.0 mi Calm Calm - N/A   Scattered Clouds
10:48 PM 60.8 °F 37.4 °F 42% 30.21 in 8.0 mi Calm Calm - N/A   Clear
11:43 PM 59.0 °F 35.6 °F 42% 29.86 in 8.0 mi Calm Calm - N/A   Clear